Pecos, TX

3:44 AM CDT on May 27, 2017 (GMT -0500)
Pecos Municipal

Weather History for KPEQ - October, 2013

Change the Weather History Date:

Friday, October 11, 2013

  Actual Average Record
Temperature  
Mean Temperature 72 °F -  
Max Temperature 87 °F 84 °F 102 °F (1972)
Min Temperature 56 °F 50 °F 36 °F (1970)
Cooling Degree Days 6    
Growing Degree Days 22 (Base 50)    
Moisture  
Dew Point 37 °F    
Average Humidity 30    
Maximum Humidity 56    
Minimum Humidity 17    
Precipitation  
Precipitation 0.00 in - - ()
Sea Level Pressure  
Sea Level Pressure 29.92 in    
Wind  
Wind Speed 6 mph (West)    
Max Wind Speed 18 mph    
Max Gust Speed 24 mph    
Visibility 10 miles    
Events      
Averages and records for this station are not official NWS values.
T = Trace of Precipitation, MM = Missing Value Source: NWS Daily Summary

Daily Weather History Graph

Daily Weather History Graph

Search for Another Location

Airport or City:

Trip Planner

Search our weather history database for the weather conditions in past years. The results will help you decide how hot, cold, wet, or windy it might be!

Date:

Astronomy

Oct. 11, 2013 Rise Set
Actual Time 7:54 AM CDT 7:26 PM CDT
Civil Twilight 7:30 AM CDT 7:50 PM CDT
Nautical Twilight 7:01 AM CDT 8:18 PM CDT
Astronomical Twilight 6:33 AM CDT 8:46 PM CDT
Moon 2:26 PM CDT (10/11) 12:21 AM CDT (10/11)
Length of Visible Light 12h 20m
Length of Day
11h 31m
Waxing Crescent, 47% of the Moon is Illuminated
Oct 11
Waxing Crescent
Oct 11
First Quarter
Oct 18
Full
Oct 26
Last Quarter
Nov 3
New

Hourly Weather History & Observations

Time (CDT) Temp. Dew Point Humidity Pressure Visibility Wind Dir Wind Speed Gust Speed Precip Events Conditions
12:15 AM 71.2 °F 50.2 °F 47% 29.84 in 10.0 mi West 3.5 mph - N/A   Clear
12:35 AM 65.5 °F 48.6 °F 54% 29.85 in 10.0 mi North 6.9 mph - N/A   Clear
12:55 AM 68.2 °F 50.7 °F 54% 29.85 in 10.0 mi Calm Calm - N/A   Clear
1:15 AM 66.0 °F 50.0 °F 56% 29.85 in 10.0 mi Calm Calm - N/A   Clear
1:55 AM 69.4 °F 42.4 °F 38% 29.86 in 10.0 mi WNW 9.2 mph - N/A   Clear
2:15 AM 69.6 °F 37.6 °F 31% 29.86 in 10.0 mi WNW 9.2 mph - N/A   Clear
2:35 AM 68.9 °F 35.8 °F 30% 29.86 in 10.0 mi West 9.2 mph - N/A   Clear
2:55 AM 65.5 °F 35.2 °F 33% 29.86 in 10.0 mi West 9.2 mph - N/A   Clear
3:15 AM 66.7 °F 35.2 °F 31% 29.87 in 10.0 mi West 8.1 mph - N/A   Clear
3:35 AM 64.0 °F 36.1 °F 36% 29.88 in 10.0 mi WNW 5.8 mph - N/A   Clear
3:55 AM 61.7 °F 35.6 °F 38% 29.88 in 10.0 mi WNW 6.9 mph - N/A   Clear
4:15 AM 60.8 °F 35.1 °F 38% 29.88 in 10.0 mi West 8.1 mph - N/A   Clear
4:35 AM 61.0 °F 34.9 °F 38% 29.88 in 10.0 mi NW 5.8 mph - N/A   Clear
4:55 AM 61.5 °F 35.1 °F 37% 29.89 in 10.0 mi WNW 6.9 mph - N/A   Clear
5:15 AM 61.0 °F 34.7 °F 37% 29.89 in 10.0 mi West 8.1 mph - N/A   Clear
5:35 AM 60.1 °F 33.8 °F 37% 29.90 in 10.0 mi West 6.9 mph - N/A   Clear
5:55 AM 61.3 °F 34.0 °F 36% 29.91 in 10.0 mi NW 5.8 mph - N/A   Clear
6:15 AM 62.6 °F 33.4 °F 34% 29.92 in 10.0 mi WNW 5.8 mph - N/A   Clear
6:35 AM 59.5 °F 33.6 °F 38% 29.93 in 10.0 mi South 3.5 mph - N/A   Clear
6:55 AM 56.8 °F 33.1 °F 41% 29.93 in 10.0 mi SSW 3.5 mph - N/A   Clear
7:15 AM 57.0 °F 33.3 °F 41% 29.94 in 10.0 mi North 5.8 mph - N/A   Clear
7:35 AM 59.7 °F 32.9 °F 36% 29.95 in 10.0 mi West 10.4 mph - N/A   Clear
7:55 AM 58.1 °F 32.5 °F 38% 29.96 in 10.0 mi NNW 8.1 mph - N/A   Clear
8:15 AM 56.7 °F 33.4 °F 42% 29.97 in 10.0 mi Calm Calm - N/A   Clear
8:35 AM 57.7 °F 34.0 °F 41% 29.97 in 10.0 mi West 4.6 mph - N/A   Clear
8:55 AM 60.8 °F 34.9 °F 38% 29.98 in 10.0 mi Calm Calm - N/A   Clear
9:15 AM 63.5 °F 34.3 °F 34% 29.99 in 7.0 mi SW 3.5 mph - N/A   Clear
9:35 AM 65.5 °F 34.7 °F 32% 29.99 in 10.0 mi WSW 4.6 mph - N/A   Clear
9:55 AM 67.1 °F 35.6 °F 31% 30.00 in 10.0 mi NNW 3.5 mph - N/A   Clear
10:15 AM 68.0 °F 36.0 °F 31% 30.00 in 10.0 mi Calm Calm - N/A   Clear
10:35 AM 69.1 °F 34.0 °F 27% 30.00 in 10.0 mi Calm Calm - N/A   Clear
10:55 AM 70.7 °F 34.9 °F 27% 30.00 in 10.0 mi Calm Calm - N/A   Clear
11:15 AM 72.5 °F 34.7 °F 25% 30.00 in 10.0 mi Calm Calm - N/A   Clear
11:35 AM 73.8 °F 34.9 °F 24% 29.99 in 10.0 mi West 3.5 mph - N/A   Clear
11:55 AM 74.8 °F 35.2 °F 24% 29.99 in 10.0 mi Calm Calm - N/A   Clear
12:15 PM 75.9 °F 35.6 °F 23% 29.98 in 10.0 mi SW 4.6 mph - N/A   Clear
12:35 PM 78.4 °F 36.0 °F 22% 29.98 in 10.0 mi Calm Calm - N/A   Clear
12:55 PM 79.5 °F 36.5 °F 21% 29.97 in 10.0 mi Calm Calm - N/A   Clear
1:15 PM 79.9 °F 36.3 °F 21% 29.96 in 10.0 mi SW 3.5 mph - N/A   Clear
1:35 PM 80.6 °F 36.5 °F 21% 29.95 in 10.0 mi Calm Calm - N/A   Clear
1:55 PM 82.6 °F 37.4 °F 20% 29.93 in 10.0 mi East 3.5 mph - N/A   Clear
2:15 PM 82.8 °F 37.4 °F 20% 29.92 in 10.0 mi ENE 3.5 mph - N/A   Clear
2:35 PM 85.6 °F 37.0 °F 18% 29.91 in 10.0 mi WSW 12.7 mph 18.4 mph N/A   Clear
2:55 PM 85.5 °F 37.8 °F 18% 29.90 in 10.0 mi WSW 11.5 mph 16.1 mph N/A   Clear
3:15 PM 86.4 °F 37.4 °F 18% 29.90 in 10.0 mi WSW 17.3 mph 21.9 mph N/A   Clear
3:35 PM 87.1 °F 37.4 °F 17% 29.89 in 10.0 mi SW 18.4 mph - N/A   Clear
3:55 PM 87.1 °F 37.0 °F 17% 29.89 in 10.0 mi WSW 15.0 mph 24.2 mph N/A   Clear
4:15 PM 86.7 °F 36.9 °F 17% 29.88 in 10.0 mi SSW 16.1 mph 19.6 mph N/A   Clear
4:35 PM 86.0 °F 36.9 °F 17% 29.88 in 10.0 mi WSW 15.0 mph 23.0 mph N/A   Clear
4:55 PM 87.3 °F 37.6 °F 17% 29.88 in 10.0 mi WSW 12.7 mph - N/A   Clear
5:15 PM 86.7 °F 37.6 °F 18% 29.88 in 10.0 mi WSW 15.0 mph - N/A   Clear
5:35 PM 86.0 °F 37.6 °F 18% 29.88 in 10.0 mi WSW 13.8 mph 21.9 mph N/A   Clear
5:55 PM 85.6 °F 37.4 °F 18% 29.87 in 10.0 mi West 11.5 mph 19.6 mph N/A   Clear
6:15 PM 85.1 °F 37.4 °F 18% 29.87 in 10.0 mi West 9.2 mph - N/A   Clear
6:35 PM 84.6 °F 36.9 °F 18% 29.88 in 10.0 mi West 10.4 mph - N/A   Clear
6:55 PM 83.3 °F 37.4 °F 19% 29.88 in 10.0 mi WNW 5.8 mph - N/A   Clear
7:15 PM 80.8 °F 37.4 °F 21% 29.88 in 10.0 mi West 4.6 mph - N/A   Clear
7:35 PM 78.4 °F 38.5 °F 24% 29.88 in 10.0 mi Calm Calm - N/A   Clear
7:55 PM 77.0 °F 38.1 °F 25% 29.89 in 10.0 mi Calm Calm - N/A   Clear
8:15 PM 75.6 °F 38.3 °F 26% 29.89 in 10.0 mi Calm Calm - N/A   Clear
8:35 PM 72.7 °F 37.6 °F 28% 29.90 in 10.0 mi North 5.8 mph - N/A   Clear
8:55 PM 75.2 °F 36.5 °F 25% 29.91 in 10.0 mi North 6.9 mph - N/A   Clear
9:15 PM 70.9 °F 35.6 °F 27% 29.91 in 10.0 mi North 6.9 mph - N/A   Clear
9:35 PM 70.7 °F 35.8 °F 28% 29.91 in 10.0 mi NNW 9.2 mph - N/A   Clear
9:55 PM 69.6 °F 35.8 °F 29% 29.92 in 10.0 mi NNW 9.2 mph - N/A   Clear
10:15 PM 68.5 °F 35.8 °F 30% 29.93 in 10.0 mi NNW 5.8 mph - N/A   Clear
10:35 PM 68.2 °F 35.8 °F 30% 29.94 in 10.0 mi Calm Calm - N/A   Clear
10:55 PM 63.0 °F 34.7 °F 35% 29.95 in 10.0 mi East 3.5 mph - N/A   Clear
11:15 PM 61.7 °F 34.0 °F 35% 29.96 in 10.0 mi SE 5.8 mph - N/A   Clear
11:35 PM 62.2 °F 34.0 °F 35% 29.96 in 10.0 mi Calm Calm - N/A   Clear
11:55 PM 63.1 °F 34.7 °F 35% 29.96 in 10.0 mi Calm Calm - N/A   Clear